Regional Weather Roundup
Issued by NWS Albany, NY

Home | Current Version | Previous Version | Text Only | Print | Product List | Glossary On
Versions: 1 2 3 4 5 6 7 8 9 10 11 12 13 14 15 16 17 18 19 20 21 22 23 24 25 26 27 28 29 30 31 32 33 34 35 36 37 38 39 40 41 42 43 44 45 46 47 48 49 50
000
ASUS41 KALY 302010
RWRALY

NEW YORK STATE HOURLY WEATHER ROUNDUP
NATIONAL WEATHER SERVICE ALBANY NY
400 PM EDT SAT APR 30 2016

NOTE: "FAIR" INDICATES FEW OR NO CLOUDS BELOW 12,000 FEET WITH NO
SIGNIFICANT WEATHER AND/OR NO OBSTRUCTIONS TO VISIBILITY.

NYZ032-033-038>043-046>054-057>066-NYZ062>081-082-084-302100-
EAST


CITY           SKY/WX    TMP DP  RH WIND       PRES   REMARKS
ALBANY         PTSUNNY   65  35  33 VRB5      30.15F
GLENS FALLS    SUNNY     65  30  27 NE5       30.15F
POUGHKEEPSIE   CLOUDY    64  40  41 SW3       30.16F
NEWBURGH       CLOUDY    61  41  48 VRB6      30.18F
MONTGOMERY     CLOUDY    62  41  46 CALM      30.16F
WHITE PLAINS   MOSUNNY   62  37  39 S10       30.18F
ISLIP          PTSUNNY   55  37  50 S10       30.22S
NEW YORK CITY  PTSUNNY   62  32  32 S13       30.19F
CENTRAL PARK   SUNNY     64  30  27 VRB3      30.22F
$$

NYZ005>009-017-018-044>046-055-056-302100-
CENTRAL


CITY           SKY/WX    TMP DP  RH WIND       PRES   REMARKS
FULTON         SUNNY     64  30  27 NW10      30.16S
SYRACUSE       PTSUNNY   63  37  38 VRB3      30.14F
ROME           SUNNY     65  37  35 S6        30.14F
ELMIRA         CLOUDY    55  40  56 S7        30.16F
BINGHAMTON     CLOUDY    51  39  63 SE3       30.17S
MONTICELLO     CLOUDY    54  39  58 SE5       30.19F
$$

NYZ026>034-041>043-087-302100-
NORTH


CITY           SKY/WX    TMP DP  RH WIND       PRES   REMARKS
WATERTOWN      SUNNY     64  25  22 N13       30.15F
FORT DRUM      NOT AVBL
MASSENA        SUNNY     60  20  21 VRB3      30.21F
SARANAC LAKE   SUNNY     60  12  15 VRB5      30.12F
PLATTSBURGH    SUNNY     56  20  24 NE13      30.21F
$$

NYZ001>004-010>016-019>021-085-302100-
WEST


CITY           SKY/WX    TMP DP  RH WIND       PRES   REMARKS
NIAGARA FALLS  CLOUDY    63  33  32 NE14      30.12F
BUFFALO        CLOUDY    60  39  45 E10       30.12F
DUNKIRK        CLOUDY    57  42  57 N10       30.12F
JAMESTOWN      CLOUDY    54  39  58 E6        30.12S
WELLSVILLE     CLOUDY    51  40  65 SE9       30.15F
ROCHESTER      PTSUNNY   58  25  28 N17       30.16F
PENN YAN       CLOUDY    58  41  53 E3        30.16F
$$

             KEY
       WCI = WIND CHILL INDEX
       VSB = VISIBILITY
       HX  = HEAT INDEX
$$



USA.gov is the U.S. government's official web portal to all federal, state and local government web resources and services.